Content
SEND FEEDBACK

Daily
Averages
Monthly
Summary
United States of America

CALERA, ALABAMA


Home > North America > United States > Alabama
Elevation: 538 feet     Latitude: 33 05N     Longitude: 086 47W

WEATHER
 
SELECT A DAY
Number of Records: 174,667;   Date Range: 6/17/98 - 8/12/14
 
SHARE

PRINT THIS DATA

[ ← Previous Day ]
WEATHER ALMANAC - JULY 2, 2014
[ Next Day → ]
[ °C ]   °F
Weather ElementAverageHighLow
Temperature82.1 °F93 °F (1:53 pm)71.1 °F (10:53 pm)
Dewpoint70.9 °F72 °F (1:53 am)68 °F (8:53 pm)
Humidity70.9 %93 % (3:53 am)47 % (4:53 pm)
Barometer29.99 in30.09 in (9:11 pm)29.93 in (5:53 pm)
Wind Speed3.3 mph17.3 mph (8:53 pm)
Wind Gust27.6 mph (8:53 pm)
Weather ElementAverage
Visibility9 mi
Wind DirectionESE (100.7 °)

Weather ElementTotal
Precipitation0.23 in
Cooling Degree Days17.1 (Base 65)
Growing Degree Days32.1 (Base 50)
Averaged from 28 records on July 2, 2014
WEATHER CONDITIONS BREAKOUT
WIND DIRECTION BREAKOUT
WEATHER BY HOUR - JULY 2, 2014
[ °C ]   °F
Local TimeTemperatureDewpointHumidityBarometerVisibilityWind DirectionWind SpeedGust SpeedPrecipitationEventsConditions
1:53 AM78.1 °F72.0 °F81 %29.96 in10.0 miCalmClear
2:53 AM75.0 °F72.0 °F90 %29.97 in9.0 miCalmClear
3:53 AM73.9 °F72.0 °F93 %29.96 in8.0 miCalmClear
4:53 AM73.9 °F72.0 °F93 %29.96 in8.0 miCalmClear
5:53 AM73.9 °F71.1 °F91 %29.97 in7.0 miCalmClear
6:53 AM75.9 °F72.0 °F87 %29.96 in7.0 miSouth (180°)3.5 mphClear
7:53 AM81.0 °F72.0 °F74 %29.98 in8.0 miCalmClear
8:53 AM84.0 °F72.0 °F67 %29.97 in9.0 miNNW (340°)4.6 mphClear
9:53 AM87.1 °F72.0 °F61 %29.98 in10.0 miNNW (330°)5.8 mphClear
10:53 AM88.0 °F71.1 °F57 %29.98 in10.0 miNNE (30°)3.5 mphClear
11:53 AM89.1 °F71.1 °F55 %29.99 in9.0 miCalmScattered Clouds
12:53 PM91.0 °F71.1 °F52 %29.98 in9.0 miCalmClear
1:53 PM93.0 °F72.0 °F50 %29.98 in10.0 miNNW (330°)4.6 mphClear
2:53 PM91.9 °F70.0 °F48 %29.97 in10.0 miWNW (290°)3.5 mphPartly Cloudy
4:53 PM93.0 °F70.0 °F47 %29.95 in10.0 miNW (320°)6.9 mphScattered Clouds
5:53 PM91.9 °F72.0 °F52 %29.93 in10.0 miWNW (290°)5.8 mphClear
6:44 PM89.1 °F71.1 °F55 %29.98 in10.0 miVariable3.5 mphThunderstormScattered Clouds
6:53 PM88.0 °F72.0 °F59 %29.96 in10.0 miSE (140°)4.6 mphThunderstormMostly Cloudy
7:25 PM86.0 °F72.0 °F63 %29.98 in10.0 miSouth (190°)5.8 mphOvercast
7:49 PM86.0 °F69.8 °F58 %29.98 in10.0 miCalmThunderstormOvercast
7:53 PM84.9 °F71.1 °F63 %29.97 in10.0 miCalmThunderstormOvercast
8:20 PM84.0 °F70.0 °F63 %29.99 in10.0 miSouth (170°)5.8 mphThunderstormThunderstorm
8:53 PM80.1 °F68.0 °F67 %30.05 in10.0 miSSW (210°)17.3 mph27.6 mph0.00 inRain-ThunderstormLight Thunderstorms and Rain
9:11 PM73.0 °F71.1 °F93 %30.09 in9.0 miNorth0.01 inRain-ThunderstormLight Thunderstorms and Rain
9:53 PM72.0 °F69.1 °F91 %30.05 in10.0 miNorth0.02 inThunderstormScattered Clouds
10:36 PM72.0 °F69.1 °F91 %30.08 in5.0 miNorth0.05 inRainRain
10:53 PM71.1 °F69.1 °F93 %30.05 in4.0 miNorth0.11 inRainRain
11:53 PM72.0 °F69.1 °F91 %30.01 in10.0 miNorth0.04 inPartly Cloudy
Hourly data recorded from KEET, located miles away from Calera, Alabama







STORIES FROM OUR PARTNERS